Regional Weather Roundup
Issued by NWS

Home | Current Version | Previous Version | Text Only | Print | Product List | Glossary Off
Versions: 1 2 3 4 5 6 7 8 9 10 11 12 13 14 15 16 17 18 19 20 21 22 23 24 25 26 27 28 29 30 31 32 33 34 35 36 37 38 39 40 41 42 43 44 45 46 47 48 49 50

000
ASUS45 KSLC 270110
RWRUT

UTAH REGIONAL WEATHER ROUNDUP
NATIONAL WEATHER SERVICE SALT LAKE CITY UT
700 PM MDT MON JUN 26 2017

UTZ001>011-023>025-270200-

NORTHERN UTAH

CITY           SKY/WX    TMP DP  RH WIND       PRES   REMARKS
BRIGHAM CITY     N/A     95  28   9 S8        29.88F
HILL AFB       MOSUNNY   92  35  13 SE7       29.92F
LOGAN          MOSUNNY   93  36  13 CALM      29.90F
OGDEN          MOSUNNY   95  33  11 SE8       29.88F HX  90
SALT LAKE CITY PTSUNNY   98  29   8 CALM      29.85F HX  92
TOOELE VALLEY  PTSUNNY   93  46  20 N9        29.87F
WENDOVER         N/A     96  33  11 NE9       29.84F HX  91
HEBER CITY     SUNNY     90  30  12 CALM      30.00F
WEST JORDAN    PTSUNNY   94  54  26 S6        29.91F HX  92

$$

UTZ011>015-024>027-270200-

CENTRAL/NORTHEAST UTAH

CITY           SKY/WX    TMP DP  RH WIND       PRES   REMARKS
PROVO AIRPORT  MOSUNNY   95  37  13 SE8       29.90F HX  90
MOAB/CANYONLAN SUNNY     98  13   4 SW6       29.92F HX  91
DELTA          MOSUNNY   97  23   7 S22G29    29.91F HX  90
PRICE          PTSUNNY   87  27  11 SW18G30   30.06F
RICHFIELD        N/A     91  30  11 SW7       30.00F
VERNAL         CLOUDY    83  36  18 N16G30    30.04F

$$

UTZ013>016-019>022-027-270200-

SOUTHERN UTAH

CITY           SKY/WX    TMP DP  RH WIND       PRES   REMARKS
BRYCE CANYON   SUNNY     82  20  10 W20G25    30.25F
CEDAR CITY     SUNNY     90  11   5 SW23G33   30.06F
MILFORD        SUNNY     95  14   5 SW22G30   29.97F
HANKSVILLE     PTSUNNY   99  30   9 W10       29.94F HX  92
KANAB          SUNNY     93  23   8 SW17G25   30.05F
BLANDING       SUNNY     89  30  12 SW7       30.15F

$$

REGIONAL REPORTS     COLORADO/ARIZONA

CITY           SKY/WX    TMP DP  RH WIND       PRES   REMARKS
CRAIG, CO      SUNNY     85  19   9 NW7       30.10F
GRAND JUNCTION SUNNY     96  12   4 NW14      29.96F
RIFLE, CO      CLOUDY    88  27  11 N7        30.05F
MONTROSE, CO   SUNNY     88  28  11 W9        30.07S
CORTEZ, CO     SUNNY     90  24   9 MISG      30.10F
COLORADO CITY    N/A     97  23   7 SW17      30.06F HX  90
PAGE, AZ       SUNNY     99  24   7 VRB7G16   29.92F HX  92
GRAND CANYON   SUNNY     86  20   9 SW18G25   30.21F
KINGMAN, AZ    SUNNY    100  29   8 SW15G24   29.95F HX  93
FLAGSTAFF, AZ  MOSUNNY   84  21  10 W13G22    30.25F

$$

REGIONAL REPORTS    NEVADA/IDAHO/WYOMING

CITY           SKY/WX    TMP DP  RH WIND       PRES   REMARKS
LAS VEGAS, NV  SUNNY    106 -10   1 SW23G32   29.78F HX  96
ELY, NY        SUNNY     90  33  13 SW9G22    30.03F
ELKO, NV       PTSUNNY   89  36  15 NW12      29.92F
POCATELLO, ID  CLOUDY    86  36  16 S20G29    29.90S
BURLEY, ID     CLOUDY    78  47  33 E12       29.89F
FORT BRIDGER,  PTCLDY    82  36  18 SE12      30.19F
EVANSTON, WY   SUNNY     82  34  17 SW10      30.16F
ROCK SPRINGS,  CLOUDY    80  26  13 W12G43    30.15S
KEMMERER, WY     N/A     81  30  16 SW7G16    30.18F

$$



USA.gov is the U.S. government's official web portal to all federal, state and local government web resources and services.